Volver al catálogo

STARLINK-4440

ActivoComunicacionesSSO
NORAD 53671·PAYLOAD·🇺🇸 United States

Lanzado Aug 31, 2022 desde Vandenberg Space Force Base

Loading…

Próximos Pases (próximas 24 horas)

TLE

ActualizadoSource: CelesTrak SupGP

Época: Sep 15, 2026, 02:23 UTC

1 53671C 22105Z   26258.09979167  .00051153  00000+0  35509-2 0  2589
2 53671  97.2845 132.1380 0002122  81.3084  41.2755 15.05638602    19

Sigue STARLINK-4440 en tiempo real con AllMySat

Download on the App Store